Location: Newark
(13.6797°N, 8.5297°E)
Time: 14:58:22
(UTC+00:00)

LightSail 2 - Pass Details

Date: 12 December 2019
Orbit: 703 x 721 km, 24.0° (Epoch: 17 January)

Event Time Altitude Azimuth Distance (km) Brightness Sun altitude
Rises 19:18:57 0° 278° (W) 3,088 9.3 -32.5°
Reaches altitude 10° 19:21:36 10° 268° (W) 2,165 8.4 -33.1°
Enters shadow 19:25:11 30° 227° (SW) 1,256 6.8 -33.9°
